Location: Champs
(48.8539°N, 2.6040°E)
Time: 00:13:09
(UTC+00:00)

ZY 1 - Visible Passes

Search period start: 15 August 2022 00:00
Search period end: 25 August 2022 00:00
Orbit: 768 x 780 km, 98.6° (Epoch: 14 August)

Date Brightness Start Highest point End Pass type
(mag) Time Alt. Az. Time Alt. Az. Time Alt. Az.
15 Aug ? 19:55:27 10° ESE 19:59:47 29° ENE 20:04:10 10° N visible
15 Aug ? 21:35:51 22° SSW 21:38:46 45° W 21:43:40 10° NNW visible
16 Aug ? 21:01:19 24° SSE 21:04:28 86° WSW 21:09:36 10° NNW visible
16 Aug ? 22:42:06 10° WSW 22:44:23 13° W 22:46:40 10° WNW visible
17 Aug ? 20:26:46 18° SE 20:30:19 50° ENE 20:35:15 10° N visible
17 Aug ? 22:07:10 17° SW 22:09:44 25° W 22:13:57 10° NW visible
18 Aug ? 19:52:14 11° ESE 19:56:21 28° ENE 20:00:37 10° N visible
18 Aug ? 21:32:38 25° SSW 21:35:17 48° W 21:40:14 10° NNW visible
19 Aug ? 20:58:05 27° SSE 21:00:59 89° ENE 21:06:08 10° NNW visible
19 Aug ? 22:38:29 11° WSW 22:40:52 14° W 22:43:27 10° NW visible
20 Aug ? 20:23:34 20° SE 20:26:52 47° ENE 20:31:45 10° N visible
20 Aug ? 22:03:57 20° SW 22:06:14 27° W 22:10:32 10° NW visible
21 Aug ? 19:49:02 11° ESE 19:52:54 26° ENE 19:57:05 10° N visible
21 Aug ? 21:29:25 29° SSW 21:31:47 51° W 21:36:46 10° NNW visible
22 Aug ? 20:54:53 30° SSE 20:57:30 83° ENE 21:02:38 10° NNW visible
22 Aug ? 22:35:17 12° WSW 22:37:19 15° W 22:40:12 10° NW visible
23 Aug ? 20:20:22 21° SE 20:23:24 44° ENE 20:28:14 10° N visible
23 Aug ? 22:00:45 22° SW 22:02:43 29° W 22:07:08 10° NW visible
24 Aug ? 19:45:50 12° ESE 19:49:27 25° ENE 19:53:32 10° N visible
24 Aug ? 21:26:13 33° SSW 21:28:17 55° W 21:33:19 10° NNW visible
